FALCON 9 R/B, 42819

Orbit data source: Space-Track

FALCON 9 R/B, 42819 is space debris in HEO originally from a launch on Wed, 05 Jul 2017 UTC launched from the Air Force Eastern Test Range (AFETR). Debris objects in space refer to the collection of defunct objects orbiting the Earth. Examples of debris include non-operational satellites, rocket bodies, and fragments generated from explosions, collisions, or faulty payload assembly.

Loading next visibility...
Identifier
42819, 2017-041B
Orbit
HEO
Country
Flag of USUS
Related business
Manufacturer
SpaceX
Mission
Spacecraft
Bus & Motor
F9ST2, Unknown motor
Mass
~4,000 kg wet, ~4,000 kg dry
Launch date (UTC)
2017-07-05 (8 years ago)
Launch vehicle
Unknown
Launch site
Air Force Eastern Test Range (AFETR)
Object type
Payload
Rocket body
Debris
Shape & HBR
Cyl, 7.8 m
Radar Cross Section
39.980 m², Large (>1 m²)

Expand to show TLE details & history
Last TLE update: 1 day ago

TLE from 1 day ago
0 FALCON 9 R/B
1 42819U 17041B   25258.49358711  .00000423  00000-0  16037-2 0  9995
2 42819  25.8182 269.6908 7449110 285.6385   9.3557  2.03921496 57765
Epoch: 2025-09-15T11:50Z
TLE epoch observation values (Epoch: 2025-09-15T11:50:45.926Z)
Latitude
-0.00023°
Longitude
97.32343°
Altitude
3,362.013 km
Speed
8.165 km/s
True Right ascension
17h 58m 50s
True Declination
0° 00' 01"
Sunlit
Object was in daylight at epoch
Visualization orbit readout
Latitude
Unknown
Longitude
Unknown
Altitude
Unknown
Speed
Unknown
Apparent Right ascension
Unknown
Apparent Declination
Unknown
Sunlit
N/A
Visualization observer readout
Local Sidereal Time
10:56:07
Azimuth
Unknown
Elevation
Unknown
Doppler factor
Unknown
Orbital elements
Apogee altitude
39,464.209 km
Perigee altitude
323.568 km
Semi-major axis
26,272.026 km
Eccentricity
0.74491
Inclination
25.8182°
RAAN
269.6908°
Arg. of periapsis
285.6385°
True anomaly
73.60272°
Mean anomaly
9.3557°
Eccentric anomaly
31.92607°
Mean motion
0.50969 °/min
Orbital period
706.32 mins
BSTAR
0.0016037
Loading maneuver chart data...
Computing Atmospheric mass density...
Loading historical data...
Loading historical data...
Loading historical data...
Loading historical data...
Loading historical data...
Loading historical data...
Loading historical data...
Other satellites on launch #41 in the year 2017 (2017-07-05 UTC)

Documentation

Showing up to 5 results
|